sat.trackr.live / text

‹ back to catalog

STARLINK-34322

NORAD 64702 · 2025-142G

PAYLOAD ACTIVE UNKNOWN

§ Identity

Operator
Country
US
Launch date
2025-06-28
Launch site
AFWTR
Launch vehicle
Mass (kg)
RCS (m²)

Purposes: comms

External: N2YO · Heavens-Above · Gunter

§ Orbital elements

Epoch: 2026-09-20T05:16:27.656256Z

Period
94.14 min
Inclination
70.0008°
Eccentricity
0.0002710
Mean motion
15.29591129 rev/d
Perigee alt
475.2 km
Apogee alt
478.9 km
Semi-major
6,855.2 km
B*
3.8311e-4
RAAN
181.7927°
Arg perigee
269.1384°
Mean anomaly
90.9481°
Rev number
6,883

§ Raw data

STARLINK-343221 64702U 25142G   26263.21976454  .00010905  00000+0  38311-3 0  99932 64702  70.0008 181.7927 0002710 269.1384  90.9481 15.29591129 68834

JSON: /api/v1/satellites/64702 · /tle

For live sub-satellite position, see the globe view (requires WebGL).

§ Visibility from observer

Set your observer location to see the next 7 days of passes ≥ 10°. The values pass through the URL so the page stays shareable.

No JS? Fill the form by hand. The geolocation button needs JavaScript.